CXBN-2 (42704 NORAD) Tracking and Keplerian Element Data

This shows tracking and keplerian element data for the satellite.

Feedback or suggestion? Click here.




ElementValue
Catalog42704
NameCXBN-2
Epoch Orbit10253
Epoch Day59.52249959
Epoch Year2019
RAAN101.104
Inclination51.6124
Eccentricity0.0002748
Argument of Perigee40.6309
Mean Anonmoly108.8739
Mean Motion16.33621154
Decay Rate0.04259319
L11 42704U 98067LM 19059.52249959 .04259319 12249-4 63401-3 0 9998
L22 42704 51.6124 101.1040 0002748 40.6309 108.8739 16.33621154102537



Live tracking and technical data element details for CXBN-2 (NORAD 42704). CXBN-2 can be tracked NOW for your location showing map with azimuth and elevation plus other details from your city location.







IsCatalogInMostPopularTable: catalog: 42704, numindb: 668
Update: records affected: 1



GetName: 42704 CXBN-2

Hit Count: updated at: Mon, 17 Jun 2024 23:03:33 GMT